| time (UTC) | temp C | wind direction | speed KPH | gust KPH | rain 1hr cm | rain 24hr cm | rain mn cm | humidity % | barometer mb |
| 20260505070421 | 6 | 253 | 20.9 | 20.9 | 0.00 | 0.00 | 0.00 | 90 | 1008.3 |
| 20260505065916 | 6 | 237 | 12.9 | 20.9 | 0.00 | 0.00 | 0.00 | 91 | 1008.3 |
| 20260505065413 | 6 | 238 | 9.7 | 20.9 | 0.00 | 0.00 | 0.00 | 91 | 1008.3 |
| 20260505064910 | 6 | 240 | 16.1 | 20.9 | 0.00 | 0.00 | 0.00 | 90 | 1008.4 |
| 20260505064407 | 6 | 243 | 17.7 | 22.5 | 0.00 | 0.00 | 0.00 | 90 | 1008.2 |
| 20260505063906 | 6 | 244 | 16.1 | 17.7 | 0.00 | 0.00 | 0.00 | 90 | 1008.1 |
| 20260505063402 | 6 | 245 | 14.5 | 22.5 | 0.00 | 0.00 | 0.00 | 90 | 1008.1 |
| 20260505062858 | 6 | 240 | 16.1 | 22.5 | 0.00 | 0.00 | 0.00 | 90 | 1007.7 |
| 20260505062355 | 6 | 237 | 14.5 | 20.9 | 0.00 | 0.00 | 0.00 | 90 | 1007.8 |
| 20260505061852 | 6 | 230 | 16.1 | 27.4 | 0.00 | 0.00 | 0.00 | 90 | 1007.7 |
| 20260505061351 | 6 | 238 | 19.3 | 24.1 | 0.00 | 0.00 | 0.00 | 90 | 1007.8 |
| 20260505060848 | 6 | 252 | 24.1 | 25.7 | 0.00 | 0.00 | 0.00 | 90 | 1007.6 |
| 20260505060344 | 6 | 245 | 22.5 | 27.4 | 0.00 | 0.00 | 0.00 | 90 | 1007.6 |
| 20260505055840 | 6 | 245 | 19.3 | 24.1 | 0.00 | 0.00 | 0.00 | 90 | 1007.6 |
| 20260505055336 | 6 | 234 | 20.9 | 25.7 | 0.00 | 0.00 | 0.00 | 90 | 1007.3 |
| 20260505054834 | 6 | 236 | 19.3 | 25.7 | 0.00 | 0.00 | 0.00 | 90 | 1007.5 |
| 20260505054331 | 6 | 250 | 17.7 | 25.7 | 0.00 | 0.00 | 0.00 | 90 | 1007.4 |
| 20260505053829 | 6 | 245 | 14.5 | 29.0 | 0.00 | 0.00 | 0.00 | 90 | 1007.3 |
| 20260505053326 | 6 | 239 | 19.3 | 27.4 | 0.00 | 0.00 | 0.00 | 90 | 1007.2 |
| 20260505052822 | 6 | 247 | 17.7 | 29.0 | 0.00 | 0.00 | 0.00 | 90 | 1007.2 |
| 20260505052319 | 6 | 248 | 19.3 | 27.4 | 0.00 | 0.00 | 0.00 | 90 | 1007.0 |
| 20260505051817 | 6 | 243 | 24.1 | 27.4 | 0.00 | 0.00 | 0.00 | 90 | 1007.0 |
| 20260505051314 | 6 | 246 | 12.9 | 27.4 | 0.00 | 0.00 | 0.00 | 90 | 1007.2 |
| 20260505050812 | 6 | 240 | 14.5 | 25.7 | 0.00 | 0.00 | 0.00 | 90 | 1007.1 |
| 20260505050310 | 6 | 242 | 14.5 | 25.7 | 0.00 | 0.00 | 0.00 | 90 | 1007.3 |
| 20260505041740 | 6 | 255 | 9.7 | 24.1 | 0.00 | 0.00 | 0.00 | 89 | 1006.6 |
| 20260505041237 | 6 | 245 | 17.7 | 24.1 | 0.00 | 0.00 | 0.00 | 88 | 1006.6 |
| 20260505040735 | 6 | 249 | 12.9 | 29.0 | 0.00 | 0.00 | 0.00 | 88 | 1006.1 |
| 20260505040232 | 7 | 261 | 16.1 | 27.4 | 0.00 | 0.00 | 0.00 | 87 | 1006.3 |
| 20260505035729 | 7 | 248 | 20.9 | 38.6 | 0.00 | 0.00 | 0.00 | 87 | 1006.2 |
| 20260505035224 | 7 | 239 | 17.7 | 37.0 | 0.00 | 0.00 | 0.00 | 87 | 1006.3 |
| 20260505034722 | 7 | 244 | 20.9 | 35.4 | 0.00 | 0.00 | 0.00 | 87 | 1006.0 |
| 20260505034218 | 7 | 239 | 29.0 | 37.0 | 0.00 | 0.00 | 0.00 | 86 | 1005.9 |
| 20260505033715 | 7 | 245 | 32.2 | 38.6 | 0.00 | 0.00 | 0.00 | 86 | 1005.7 |
| 20260505033213 | 7 | 248 | 30.6 | 33.8 | 0.00 | 0.00 | 0.00 | 86 | 1005.7 |
| 20260505032711 | 7 | 243 | 20.9 | 37.0 | 0.00 | 0.00 | 0.00 | 86 | 1005.7 |
| 20260505032206 | 7 | 236 | 22.5 | 30.6 | 0.00 | 0.00 | 0.00 | 86 | 1005.5 |
| 20260505031704 | 7 | 238 | 20.9 | 27.4 | 0.00 | 0.00 | 0.00 | 85 | 1005.7 |
| 20260505031200 | 7 | 251 | 24.1 | 37.0 | 0.00 | 0.00 | 0.00 | 84 | 1005.6 |
| 20260505030657 | 7 | 242 | 25.7 | 35.4 | 0.00 | 0.00 | 0.00 | 84 | 1005.4 |
| 20260505030153 | 7 | 239 | 20.9 | 35.4 | 0.00 | 0.00 | 0.00 | 83 | 1005.4 |
| 20260505025649 | 7 | 244 | 24.1 | 32.2 | 0.00 | 0.03 | 0.03 | 84 | 1005.0 |
| 20260505025148 | 7 | 246 | 24.1 | 37.0 | 0.00 | 0.03 | 0.03 | 84 | 1005.0 |
| 20260505024645 | 7 | 236 | 22.5 | 32.2 | 0.00 | 0.03 | 0.03 | 84 | 1005.3 |
| 20260505024142 | 7 | 234 | 24.1 | 33.8 | 0.00 | 0.03 | 0.03 | 85 | 1004.9 |
| 20260505023639 | 7 | 245 | 27.4 | 32.2 | 0.00 | 0.03 | 0.03 | 85 | 1004.8 |
| 20260505023137 | 7 | 248 | 20.9 | 40.2 | 0.00 | 0.03 | 0.03 | 85 | 1004.9 |
| 20260505022634 | 7 | 239 | 25.7 | 35.4 | 0.00 | 0.03 | 0.03 | 84 | 1004.9 |
| 20260505022131 | 7 | 253 | 20.9 | 43.5 | 0.00 | 0.03 | 0.03 | 84 | 1004.6 |
| 20260505021627 | 7 | 248 | 25.7 | 35.4 | 0.00 | 0.03 | 0.03 | 84 | 1004.4 |
| 20260505021124 | 7 | 239 | 27.4 | 35.4 | 0.00 | 0.03 | 0.03 | 83 | 1004.5 |
| 20260505020620 | 7 | 240 | 22.5 | 29.0 | 0.00 | 0.03 | 0.03 | 84 | 1004.5 |
| 20260505020116 | 7 | 242 | 20.9 | 32.2 | 0.00 | 0.03 | 0.03 | 83 | 1004.5 |
| 20260505015613 | 7 | 244 | 24.1 | 32.2 | 0.00 | 0.03 | 0.03 | 83 | 1004.3 |
| 20260505015110 | 7 | 244 | 20.9 | 29.0 | 0.00 | 0.03 | 0.03 | 83 | 1004.3 |
| 20260505014607 | 7 | 250 | 22.5 | 33.8 | 0.00 | 0.03 | 0.03 | 82 | 1004.2 |
| 20260505014104 | 7 | 237 | 29.0 | 33.8 | 0.00 | 0.03 | 0.03 | 81 | 1004.2 |
| 20260505013601 | 8 | 241 | 24.1 | 38.6 | 0.00 | 0.03 | 0.03 | 80 | 1004.1 |
| 20260505013058 | 8 | 244 | 24.1 | 38.6 | 0.00 | 0.03 | 0.03 | 79 | 1004.1 |
| 20260505012556 | 8 | 247 | 24.1 | 38.6 | 0.00 | 0.03 | 0.03 | 78 | 1004.0 |
| 20260505012053 | 8 | 233 | 22.5 | 37.0 | 0.00 | 0.03 | 0.03 | 77 | 1003.7 |
| 20260505011548 | 8 | 242 | 29.0 | 43.5 | 0.00 | 0.03 | 0.03 | 77 | 1003.8 |
| 20260505011046 | 8 | 242 | 25.7 | 43.5 | 0.00 | 0.03 | 0.03 | 76 | 1003.9 |
| 20260505010541 | 8 | 236 | 30.6 | 40.2 | 0.00 | 0.03 | 0.03 | 75 | 1003.7 |
| 20260505010038 | 8 | 236 | 20.9 | 45.1 | 0.00 | 0.03 | 0.03 | 76 | 1003.6 |
| 20260505005534 | 8 | 240 | 35.4 | 45.1 | 0.00 | 0.03 | 0.03 | 75 | 1003.6 |
| 20260505005032 | 8 | 249 | 27.4 | 43.5 | 0.00 | 0.03 | 0.03 | 74 | 1003.5 |
| 20260505004529 | 8 | 241 | 25.7 | 41.8 | 0.00 | 0.03 | 0.03 | 74 | 1003.7 |
| 20260505004026 | 8 | 231 | 30.6 | 40.2 | 0.00 | 0.03 | 0.03 | 74 | 1003.5 |
| 20260505003523 | 8 | 248 | 29.0 | 41.8 | 0.00 | 0.03 | 0.03 | 74 | 1003.3 |
| 20260505003020 | 8 | 239 | 32.2 | 41.8 | 0.00 | 0.03 | 0.03 | 74 | 1003.2 |
| 20260505002521 | 8 | 241 | 29.0 | 46.7 | 0.00 | 0.03 | 0.03 | 74 | 1003.2 |
| 20260505002020 | 8 | 242 | 25.7 | 43.5 | 0.00 | 0.03 | 0.03 | 73 | 1003.2 |
| 20260505001517 | 9 | 231 | 32.2 | 48.3 | 0.00 | 0.03 | 0.03 | 72 | 1003.2 |
| 20260505001014 | 9 | 238 | 38.6 | 48.3 | 0.00 | 0.03 | 0.03 | 71 | 1002.8 |
| 20260505000511 | 9 | 239 | 38.6 | 41.8 | 0.00 | 0.03 | 0.03 | 71 | 1002.9 |
| 20260505000009 | 9 | 238 | 24.1 | 46.7 | 0.00 | 0.03 | 0.03 | 71 | 1002.8 |
| 20260504235505 | 9 | 235 | 30.6 | 41.8 | 0.00 | 0.03 | 0.03 | 71 | 1002.7 |
| 20260504235002 | 9 | 240 | 19.3 | 43.5 | 0.00 | 0.03 | 0.03 | 70 | 1002.6 |
| 20260504234459 | 9 | 243 | 29.0 | 43.5 | 0.00 | 0.03 | 0.03 | 68 | 1002.6 |
| 20260504233955 | 9 | 233 | 22.5 | 41.8 | 0.00 | 0.03 | 0.03 | 68 | 1002.4 |
| 20260504233451 | 9 | 234 | 27.4 | 41.8 | 0.00 | 0.03 | 0.03 | 69 | 1002.2 |
| 20260504232948 | 9 | 232 | 25.7 | 37.0 | 0.00 | 0.03 | 0.03 | 68 | 1002.2 |
| 20260504232445 | 10 | 237 | 22.5 | 37.0 | 0.00 | 0.03 | 0.03 | 66 | 1002.2 |
| 20260504231943 | 10 | 232 | 25.7 | 37.0 | 0.00 | 0.03 | 0.03 | 65 | 1002.1 |
| 20260504231439 | 10 | 234 | 17.7 | 38.6 | 0.00 | 0.03 | 0.03 | 64 | 1002.0 |
| 20260504230935 | 10 | 238 | 14.5 | 37.0 | 0.00 | 0.03 | 0.03 | 65 | 1001.9 |
| 20260504230432 | 10 | 236 | 29.0 | 37.0 | 0.00 | 0.03 | 0.03 | 64 | 1001.9 |
| 20260504225931 | 10 | 243 | 27.4 | 41.8 | 0.00 | 0.03 | 0.03 | 64 | 1001.7 |
| 20260504225427 | 10 | 228 | 19.3 | 35.4 | 0.00 | 0.03 | 0.03 | 64 | 1001.9 |
| 20260504224925 | 10 | 234 | 27.4 | 35.4 | 0.00 | 0.03 | 0.03 | 63 | 1001.6 |
| 20260504224421 | 10 | 223 | 22.5 | 30.6 | 0.00 | 0.03 | 0.03 | 64 | 1001.8 |
| 20260504223919 | 10 | 225 | 24.1 | 35.4 | 0.00 | 0.03 | 0.03 | 64 | 1001.8 |
| 20260504223414 | 10 | 245 | 33.8 | 35.4 | 0.00 | 0.03 | 0.03 | 63 | 1001.6 |
| 20260504222910 | 10 | 231 | 17.7 | 35.4 | 0.00 | 0.03 | 0.03 | 64 | 1001.6 |
| 20260504222408 | 9 | 238 | 20.9 | 40.2 | 0.00 | 0.03 | 0.03 | 66 | 1001.5 |
| 20260504221906 | 9 | 240 | 27.4 | 38.6 | 0.00 | 0.03 | 0.03 | 62 | 1001.3 |
| 20260504221402 | 9 | 248 | 20.9 | 40.2 | 0.00 | 0.03 | 0.03 | 63 | 1001.5 |
| 20260504220859 | 10 | 229 | 27.4 | 37.0 | 0.00 | 0.03 | 0.03 | 63 | 1001.4 |
| 20260504220356 | 10 | 242 | 25.7 | 48.3 | 0.00 | 0.03 | 0.03 | 61 | 1001.3 |
| 20260504215853 | 9 | 235 | 37.0 | 41.8 | 0.00 | 0.03 | 0.03 | 64 | 1001.3 |
| 20260504215349 | 9 | 243 | 30.6 | 38.6 | 0.00 | 0.03 | 0.03 | 68 | 1001.2 |
| 20260504214846 | 9 | 244 | 24.1 | 35.4 | 0.00 | 0.03 | 0.03 | 67 | 1001.3 |
| 20260504214343 | 9 | 247 | 24.1 | 43.5 | 0.00 | 0.03 | 0.03 | 68 | 1001.3 |
| 20260504213839 | 9 | 249 | 32.2 | 38.6 | 0.00 | 0.03 | 0.03 | 70 | 1001.2 |
| 20260504213335 | 10 | 239 | 30.6 | 33.8 | 0.00 | 0.03 | 0.03 | 69 | 1001.3 |
| 20260504212833 | 9 | 241 | 24.1 | 40.2 | 0.00 | 0.03 | 0.03 | 69 | 1001.4 |
| 20260504212328 | 10 | 243 | 25.7 | 35.4 | 0.00 | 0.03 | 0.03 | 68 | 1001.4 |
| 20260504211827 | 10 | 240 | 25.7 | 37.0 | 0.00 | 0.03 | 0.03 | 67 | 1001.3 |
| 20260504211328 | 10 | 249 | 22.5 | 32.2 | 0.00 | 0.03 | 0.03 | 67 | 1001.2 |
| 20260504210825 | 10 | 242 | 32.2 | 33.8 | 0.00 | 0.03 | 0.03 | 63 | 1001.2 |
| 20260504210322 | 11 | 244 | 25.7 | 40.2 | 0.00 | 0.03 | 0.03 | 59 | 1001.2 |
| 20260504205819 | 11 | 243 | 27.4 | 35.4 | 0.00 | 0.03 | 0.03 | 63 | 1001.1 |
| 20260504205317 | 11 | 243 | 20.9 | 33.8 | 0.00 | 0.03 | 0.03 | 63 | 1001.1 |
| 20260504204815 | 10 | 256 | 25.7 | 30.6 | 0.00 | 0.03 | 0.03 | 63 | 1000.9 |
| 20260504204313 | 10 | 244 | 22.5 | 37.0 | 0.00 | 0.03 | 0.03 | 64 | 1000.7 |
| 20260504203812 | 10 | 245 | 27.4 | 38.6 | 0.00 | 0.03 | 0.03 | 62 | 1000.8 |
| 20260504203309 | 10 | 241 | 24.1 | 43.5 | 0.00 | 0.03 | 0.03 | 63 | 1000.4 |
| 20260504202804 | 11 | 255 | 19.3 | 37.0 | 0.00 | 0.03 | 0.03 | 61 | 1000.5 |
| 20260504202302 | 11 | 249 | 22.5 | 35.4 | 0.00 | 0.03 | 0.03 | 61 | 1000.5 |
| 20260504201758 | 10 | 241 | 24.1 | 35.4 | 0.00 | 0.03 | 0.03 | 62 | 1000.5 |
| 20260504201255 | 10 | 239 | 27.4 | 32.2 | 0.00 | 0.03 | 0.03 | 64 | 1000.5 |
| 20260504200754 | 10 | 255 | 16.1 | 30.6 | 0.00 | 0.03 | 0.03 | 64 | 1000.6 |
| 20260504200249 | 10 | 236 | 30.6 | 37.0 | 0.00 | 0.03 | 0.03 | 62 | 1000.6 |
| 20260504195746 | 10 | 235 | 19.3 | 29.0 | 0.00 | 0.03 | 0.03 | 65 | 1000.5 |
| 20260504195241 | 10 | 246 | 37.0 | 41.8 | 0.00 | 0.03 | 0.03 | 61 | 1000.3 |
| 20260504194739 | 10 | 244 | 30.6 | 35.4 | 0.00 | 0.03 | 0.03 | 62 | 1000.1 |
| 20260504194235 | 10 | 245 | 29.0 | 35.4 | 0.00 | 0.03 | 0.03 | 61 | 1000.2 |
| 20260504193731 | 10 | 243 | 27.4 | 35.4 | 0.00 | 0.03 | 0.03 | 62 | 1000.0 |
| 20260504193229 | 10 | 252 | 29.0 | 45.1 | 0.00 | 0.03 | 0.03 | 61 | 1000.2 |
| 20260504192727 | 10 | 247 | 25.7 | 35.4 | 0.00 | 0.03 | 0.03 | 63 | 1000.0 |
| 20260504192225 | 10 | 241 | 33.8 | 40.2 | 0.00 | 0.03 | 0.03 | 62 | 1000.1 |
| 20260504191723 | 10 | 242 | 25.7 | 32.2 | 0.00 | 0.03 | 0.03 | 64 | 1000.0 |
| 20260504191220 | 10 | 244 | 25.7 | 40.2 | 0.00 | 0.03 | 0.03 | 64 | 999.8 |
| 20260504190715 | 10 | 236 | 32.2 | 43.5 | 0.00 | 0.03 | 0.03 | 63 | 1000.1 |
| 20260504190212 | 10 | 245 | 33.8 | 45.1 | 0.00 | 0.03 | 0.03 | 63 | 1000.2 |
| 20260504185708 | 10 | 241 | 32.2 | 45.1 | 0.00 | 0.03 | 0.03 | 66 | 1000.2 |
| 20260504185205 | 10 | 250 | 25.7 | 35.4 | 0.00 | 0.03 | 0.03 | 67 | 999.9 |
| 20260504184701 | 10 | 262 | 35.4 | 37.0 | 0.00 | 0.03 | 0.03 | 64 | 1000.1 |
| 20260504184156 | 10 | 242 | 20.9 | 33.8 | 0.00 | 0.03 | 0.03 | 67 | 1000.0 |
| 20260504183653 | 10 | 255 | 27.4 | 35.4 | 0.00 | 0.03 | 0.03 | 67 | 1000.1 |
| 20260504183150 | 10 | 257 | 24.1 | 37.0 | 0.00 | 0.03 | 0.03 | 66 | 999.9 |
| 20260504182648 | 10 | 253 | 17.7 | 32.2 | 0.00 | 0.03 | 0.03 | 67 | 999.8 |
| 20260504182145 | 9 | 247 | 22.5 | 40.2 | 0.00 | 0.03 | 0.03 | 68 | 999.8 |
| 20260504181643 | 9 | 260 | 29.0 | 40.2 | 0.00 | 0.03 | 0.03 | 69 | 999.9 |
| 20260504181140 | 9 | 246 | 38.6 | 43.5 | 0.00 | 0.03 | 0.03 | 69 | 999.9 |
| 20260504180639 | 9 | 252 | 25.7 | 41.8 | 0.00 | 0.03 | 0.03 | 69 | 1000.0 |
| 20260504180138 | 8 | 251 | 29.0 | 49.9 | 0.00 | 0.03 | 0.03 | 71 | 999.9 |
| 20260504175634 | 8 | 243 | 29.0 | 46.7 | 0.00 | 0.03 | 0.03 | 71 | 1000.1 |
| 20260504175131 | 8 | 243 | 41.8 | 48.3 | 0.00 | 0.03 | 0.03 | 71 | 999.8 |
| 20260504174630 | 8 | 243 | 38.6 | 49.9 | 0.00 | 0.03 | 0.03 | 73 | 999.8 |
| 20260504174125 | 9 | 250 | 27.4 | 41.8 | 0.00 | 0.03 | 0.03 | 73 | 999.9 |
| 20260504173623 | 8 | 249 | 27.4 | 45.1 | 0.00 | 0.03 | 0.03 | 73 | 999.6 |
| 20260504173120 | 8 | 256 | 22.5 | 45.1 | 0.00 | 0.03 | 0.03 | 75 | 999.5 |
| 20260504172616 | 9 | 240 | 24.1 | 48.3 | 0.00 | 0.03 | 0.03 | 72 | 999.5 |
| 20260504172113 | 8 | 251 | 29.0 | 48.3 | 0.00 | 0.03 | 0.03 | 73 | 999.4 |
| 20260504171609 | 8 | 251 | 22.5 | 41.8 | 0.00 | 0.03 | 0.03 | 75 | 999.6 |
| 20260504171107 | 8 | 245 | 27.4 | 41.8 | 0.00 | 0.03 | 0.03 | 75 | 999.4 |
| 20260504170602 | 9 | 237 | 33.8 | 51.5 | 0.00 | 0.03 | 0.03 | 73 | 999.2 |
| 20260504150946 | 7 | 275 | 33.8 | 46.7 | 0.00 | 0.03 | 0.03 | 85 | 998.1 |
| 20260504150443 | 7 | 261 | 43.5 | 51.5 | 0.00 | 0.03 | 0.03 | 84 | 998.1 |
| 20260504140910 | 6 | 278 | 41.8 | 59.5 | 0.00 | 0.03 | 0.03 | 83 | 997.3 |
| 20260504140405 | 6 | 276 | 48.3 | 61.2 | 0.00 | 0.03 | 0.03 | 84 | 997.0 |
| 20260504130331 | 6 | 275 | 32.2 | 46.7 | 0.00 | 0.03 | 0.03 | 90 | 996.0 |
| 20260504120254 | 5 | 289 | 24.1 | 43.5 | 0.00 | 0.03 | 0.03 | 94 | 994.8 |
| 20260504110218 | 4 | 303 | 22.5 | 45.1 | 0.05 | 0.03 | 0.03 | 96 | 992.9 |
| 20260504100142 | 3 | 309 | 37.0 | 53.1 | 0.00 | 0.00 | 0.00 | 95 | 991.4 |
| 20260504090104 | 2 | 304 | 35.4 | 54.7 | 0.00 | 0.00 | 0.00 | 96 | 989.1 |
| 20260504081535 | 2 | 299 | 32.2 | 51.5 | 0.00 | 0.00 | 0.00 | 98 | 987.4 |
| 20260504081030 | 1 | 302 | 43.5 | 59.5 | 0.00 | 0.00 | 0.00 | 98 | 987.0 |
| 20260504080527 | 1 | 308 | 38.6 | 64.4 | 0.00 | 0.00 | 0.00 | 98 | 986.9 |